Temp
5 4 4 4 4 4 4 4 4 4 4 4 4 4 4 4 4 4 5 5 5 4 4 4 4 4 4 4 4 4 5 5 5 5 5 6 6 6 7 7 7 8
4 4 4 4 4 4 4 4 4 4 4 4 4 4 4 4 4 4 4 4 4 4 4 4 4 4 4 4 4 4 4 4 4 5 5 5 5 5 6 6 6 7
3 3 3 3 3 3 3 4 4 4 4 4 4 4 4 4 4 4 4 4 4 4 4 4 4 4 4 4 4 4 4 4 4 4 4 4 4 4 5 5 5 6
3 3 3 3 3 3 3 3 3 3 3 3 3 3 3 3 4 4 4 4 4 4 4 4 4 4 4 4 3 3 3 3 3 3 3 4 4 4 4 4 4 5
2 2 2 2 2 2 2 3 3 3 3 3 3 3 3 3 3 3 3 3 3 4 4 4 4 4 4 4 4 3 3 3 3 3 3 3 3 3 4 4 4 4
2 2 2 2 1 2 2 2 2 2 2 2 2 2 2 3 3 3 3 3 3 3 3 3 3 3 3 3 3 3 3 3 3 3 3 3 3 3 3 3 3 3
2 2 2 1 1 1 1 1 1 1 1 1 1 2 2 2 2 2 2 2 2 3 3 3 3 3 3 3 3 3 3 3 3 3 3 3 3 3 3 3 3 3
1 1 1 1 1 1 1 1 1 1 1 1 1 1 1 1 1 1 1 2 2 2 2 2 2 3 3 3 3 3 3 3 3 3 2 2 2 2 2 3 3 3
1 1 1 1 1 1 1 0 1 1 1 1 1 1 1 1 1 1 1 1 1 1 1 1 2 2 2 2 2 2 2 2 3 3 2 2 2 2 2 2 2 2
1 0 0 0 0 -0 -0 -0 -0 -0 0 0 0 1 1 2 2 1 1 1 1 1 1 1 1 1 1 1 2 2 2 2 2 2 2 2 2 2 2 2 2 2
1 1 1 0 0 -0 -0 -1 -1 -1 -1 -1 -1 -0 0 0 1 1 1 1 1 1 1 1 1 0 0 0 1 1 1 1 2 2 2 2 2 2 2 2 2 2
1 1 1 1 0 0 0 -0 -0 -1 -1 -1 -1 -1 -1 -1 -1 -0 -0 -0 -0 -0 -0 0 0 -0 -0 -0 -0 0 0 1 1 1 1 2 2 2 2 2 2 1
0 0 0 0 0 0 0 0 0 -0 -0 -0 -1 -1 -1 -1 -1 -1 -2 -2 -2 -1 -1 -1 -1 -1 -1 -1 -0 -0 -0 -0 -0 0 1 1 1 2 2 2 2 1
-0 -0 -0 -0 -1 -0 -0 -0 -0 -0 -0 -0 -1 -1 -1 -1 -2 -2 -2 -3 -3 -3 -3 -3 -3 -2 -2 -1 -1 -1 -1 -1 -1 -1 -0 0 0 1 1 1 1 1
-1 -1 -1 -1 -1 -1 -1 -1 -1 -1 -1 -1 -1 -2 -2 -2 -2 -3 -3 -3 -4 -4 -4 -4 -4 -4 -3 -3 -2 -2 -2 -2 -1 -1 -1 -1 -0 -0 0 0 0 1
-1 -1 -1 -1 -2 -2 -2 -2 -2 -2 -3 -3 -3 -3 -3 -3 -3 -3 -4 -4 -4 -5 -5 -5 -5 -5 -4 -4 -4 -3 -3 -3 -2 -2 -2 -1 -1 -1 -1 -0 -0 -0
-1 -2 -2 -2 -2 -3 -3 -3 -3 -3 -4 -4 -4 -4 -4 -4 -5 -5 -5 -5 -5 -6 -6 -6 -6 -5 -5 -5 -5 -4 -4 -3 -3 -3 -2 -2 -2 -1 -1 -1 -1 -1
-2 -3 -3 -3 -3 -3 -4 -4 -4 -4 -5 -5 -5 -5 -5 -5 -6 -6 -6 -6 -6 -7 -7 -7 -7 -6 -6 -6 -6 -5 -5 -4 -4 -4 -3 -3 -2 -2 -2 -2 -1 -1
-3 -4 -4 -4 -4 -5 -5 -5 -5 -6 -6 -6 -6 -6 -6 -7 -7 -7 -7 -7 -8 -8 -8 -8 -8 -7 -7 -7 -7 -7 -6 -6 -5 -5 -4 -4 -3 -3 -3 -2 -2 -2
-5 -5 -5 -5 -6 -6 -6 -7 -7 -7 -7 -7 -7 -8 -8 -8 -8 -9 -9 -9 -9 -9 -9 -9 -9 -8 -8 -8 -8 -7 -7 -7 -6 -6 -5 -5 -4 -4 -4 -3 -3 -3
-6 -6 -7 -7 -7 -8 -8 -8 -9 -9 -9 -9 -9 -10 -10 -10 -10 -10 -10 -10 -10 -10 -10 -10 -10 -10 -9 -9 -9 -9 -8 -8 -7 -7 -7 -6 -6 -5 -5 -4 -4 -3
-7 -8 -8 -9 -9 -10 -10 -10 -10 -11 -11 -11 -11 -12 -12 -12 -12 -12 -12 -12 -12 -12 -12 -12 -11 -11 -11 -10 -10 -10 -9 -9 -9 -9 -8 -8 -7 -7 -6 -6 -5 -4
-9 -10 -10 -11 -11 -11 -12 -12 -12 -13 -13 -13 -14 -14 -14 -14 -14 -14 -13 -13 -13 -13 -13 -13 -13 -13 -12 -12 -12 -11 -11 -11 -10 -10 -10 -9 -9 -8 -8 -7 -6 -6
-11 -12 -12 -12 -13 -13 -13 -14 -14 -15 -15 -15 -15 -15 -15 -15 -15 -15 -15 -15 -15 -15 -15 -14 -14 -14 -14 -14 -13 -13 -13 -12 -12 -11 -11 -10 -10 -10 -9 -9 -8 -7
-13 -13 -14 -14 -14 -15 -15 -16 -16 -16 -16 -16 -16 -16 -16 -16 -16 -16 -16 -16 -16 -16 -16 -16 -16 -16 -16 -15 -15 -14 -14 -13 -13 -12 -12 -11 -11 -11 -10 -10 -9 -9
-15 -15 -15 -16 -16 -16 -17 -17 -17 -17 -17 -17 -17 -17 -17 -17 -17 -17 -17 -17 -17 -17 -17 -17 -17 -17 -17 -16 -15 -15 -14 -14 -13 -13 -12 -12 -12 -11 -11 -11 -11 -10
Height
824 824 823 822 822 821 820 819 818 818 817 816 816 815 814 813 812 810 809 807 806 805 804 803 802 801 801 800 799 798 798 798 797 797 797 796 795 795 794 793 793 792
826 827 826 824 823 822 821 821 820 819 818 818 818 817 816 814 813 811 810 808 807 805 804 803 801 800 799 798 797 797 796 796 795 795 795 794 793 792 791 791 790 790
829 829 827 825 824 823 823 822 821 820 820 819 818 817 816 815 814 812 811 809 807 805 804 802 800 799 798 796 796 795 794 794 793 793 792 791 791 790 789 789 788 787
830 830 828 826 825 824 824 823 822 821 821 820 819 818 817 816 815 813 811 810 808 806 804 802 800 798 797 795 794 793 793 792 791 791 790 789 788 788 787 786 785 784
830 830 828 827 826 825 824 823 823 822 821 821 820 819 817 816 815 813 812 810 808 807 805 803 801 799 796 795 793 792 790 790 789 789 788 786 786 785 784 784 782 782
830 830 828 827 826 825 824 823 822 822 821 821 820 819 817 816 814 813 812 810 809 807 805 803 801 799 797 794 792 791 789 788 787 786 785 784 783 783 782 781 780 779
830 829 828 827 826 825 824 822 822 821 820 820 819 818 816 815 814 812 811 809 808 807 805 803 801 798 796 794 792 790 788 787 785 784 783 782 781 780 779 779 777 776
830 829 828 826 825 824 823 821 820 820 819 818 816 816 814 813 812 810 809 807 806 805 803 802 800 798 795 793 791 789 788 786 785 783 782 780 779 777 776 775 774 773
828 827 826 825 823 822 822 821 820 819 818 816 815 813 812 811 809 807 806 804 803 801 800 799 798 796 795 793 791 789 787 786 784 782 780 778 777 775 773 772 771 769
826 825 824 823 822 821 820 820 819 818 816 815 813 812 810 808 807 805 803 802 800 799 797 796 795 794 793 791 790 788 786 784 783 781 779 777 775 773 771 770 768 766
824 823 822 821 820 819 818 818 817 816 814 813 811 809 808 806 805 804 802 800 798 797 795 794 793 791 790 788 787 786 784 782 780 779 777 774 772 770 768 767 766 764
822 821 820 819 818 817 816 815 814 813 812 810 809 807 805 804 803 801 800 798 797 795 794 792 791 789 787 785 783 782 780 779 777 775 773 771 769 767 765 764 762 761
822 821 820 819 818 816 815 814 812 811 810 808 807 805 803 802 800 798 797 796 794 792 791 790 788 786 784 782 780 778 776 774 772 771 769 767 765 763 762 760 759 757
821 821 819 818 817 815 814 813 811 810 808 806 805 803 801 799 798 796 794 792 791 789 788 786 784 782 779 778 776 774 772 770 768 766 764 762 760 758 757 756 754 753
820 819 818 817 816 814 813 811 810 808 806 805 803 801 800 798 795 793 791 788 787 785 784 782 780 777 775 774 772 770 768 766 763 761 758 756 754 752 751 750 749 748
818 816 815 814 813 812 810 809 807 806 804 802 801 799 797 795 793 791 788 786 783 780 778 776 774 772 769 769 768 767 765 762 759 757 754 752 749 746 744 743 742 742
816 815 813 812 811 810 808 806 805 803 801 800 797 796 794 792 789 787 785 783 781 777 775 771 769 766 764 763 762 761 761 758 755 753 750 748 746 743 740 737 736 735
815 814 812 811 809 808 806 804 803 801 799 797 795 793 790 788 785 783 780 779 777 774 771 767 764 761 758 758 757 756 755 754 751 748 745 743 741 738 736 733 732 730
814 812 811 809 808 806 804 802 801 798 796 795 792 790 787 784 782 779 777 774 772 769 766 763 759 756 754 754 753 752 751 750 748 745 741 738 736 733 731 729 727 725
812 810 809 807 806 804 802 800 799 796 794 792 790 787 784 781 778 775 772 770 768 765 762 758 754 751 750 751 750 749 749 747 744 741 737 733 730 728 726 723 721 720
809 807 806 804 803 802 800 798 796 794 791 790 787 784 781 778 775 772 768 765 763 761 759 754 749 747 748 748 747 746 745 743 741 737 733 729 725 723 721 719 717 715
806 804 803 801 799 798 796 794 792 790 788 786 783 780 777 774 771 768 765 761 758 757 755 750 745 744 745 745 743 741 740 738 735 732 729 725 720 717 715 713 712 710
803 802 800 798 796 794 791 789 788 785 783 782 779 775 772 770 767 764 760 757 754 753 752 747 741 740 742 742 739 737 735 733 729 725 722 718 714 711 710 707 706 705
801 799 797 795 792 790 788 785 784 781 779 778 775 771 767 765 763 759 755 753 752 750 749 745 739 736 739 738 736 733 731 728 724 720 715 711 707 704 703 702 699 698
797 796 794 792 789 787 785 782 780 777 775 773 771 768 763 760 758 755 749 747 748 747 745 743 737 733 734 734 731 729 727 724 720 715 710 706 702 699 696 694 691 689
794 792 790 789 786 784 781 779 777 774 771 769 766 763 759 755 753 750 745 741 742 742 739 738 735 730 729 730 727 724 722 720 716 711 706 702 699 695 690 686 683 681
Wind_Speed
26 26 26 26 26 26 26 26 25 25 24 24 24 23 23 22 21 19 17 15 13 13 14 15 15 15 16 16 17 19 21 23 24 25 26 27 28 28 29 30 33 35
25 24 24 24 25 24 25 24 24 24 24 24 24 23 23 24 23 22 21 19 17 16 15 15 15 15 15 16 17 18 19 21 22 23 25 27 28 29 29 29 30 32
22 22 22 23 23 22 22 22 22 22 22 22 23 23 23 23 24 23 23 23 22 20 18 18 17 16 16 16 17 18 19 20 21 22 24 26 27 28 30 30 30 30
19 19 20 20 20 20 20 20 21 21 21 22 22 22 22 22 22 23 23 23 23 23 22 21 20 18 17 16 16 18 19 21 21 22 24 25 25 27 29 29 31 31
16 17 18 18 18 18 18 19 20 20 21 21 22 22 22 22 23 23 23 23 23 23 23 23 22 21 19 18 17 18 19 20 21 22 24 26 25 26 27 28 30 32
14 15 16 17 17 17 18 19 20 20 21 21 21 22 22 22 23 24 24 24 23 23 23 23 23 22 21 20 19 18 18 20 21 21 24 26 26 27 27 28 29 31
13 15 16 17 17 17 17 19 20 21 22 22 23 23 23 23 23 23 24 24 24 24 24 24 23 23 23 22 22 21 20 19 20 20 22 24 26 27 27 28 29 31
12 14 17 19 19 19 18 19 21 22 24 24 26 26 26 26 26 25 25 25 25 25 26 26 25 24 24 24 24 24 23 22 21 20 21 23 24 26 27 28 29 31
12 14 17 20 21 21 20 19 21 23 25 26 27 28 28 28 28 28 29 28 28 28 28 28 27 26 26 25 25 25 25 25 24 23 23 23 23 25 26 26 28 30
18 19 21 22 22 22 21 20 21 23 24 26 27 29 30 30 30 30 31 31 31 31 31 31 30 29 28 27 26 26 26 26 26 26 26 26 26 25 25 25 27 29
23 24 25 26 26 26 26 24 24 25 26 26 27 29 30 31 31 31 32 32 32 32 33 33 33 32 31 30 29 28 27 28 28 28 28 28 28 28 27 26 27 28
25 27 28 29 29 29 29 29 28 29 29 29 30 31 32 32 32 33 33 33 33 34 34 34 34 34 33 33 33 31 30 29 29 30 30 30 30 30 29 29 28 29
25 26 28 29 30 30 30 30 30 31 32 33 33 33 34 35 35 35 35 34 35 35 35 35 35 36 36 36 35 34 32 31 31 31 31 31 32 32 32 32 31 31
23 25 27 28 30 30 30 30 31 32 33 34 35 35 36 37 37 38 38 37 37 36 36 36 36 37 38 37 36 36 34 34 34 34 33 33 34 34 34 34 34 34
24 26 28 29 30 31 31 32 32 33 34 35 36 37 37 38 39 40 40 40 40 39 39 38 38 38 39 37 36 36 36 37 37 37 37 36 36 36 36 35 35 35
27 28 30 31 31 32 32 33 33 35 36 37 37 37 38 39 39 40 40 41 42 43 43 42 41 41 41 41 37 35 36 37 37 38 38 37 37 38 38 38 37 37
29 29 30 31 31 32 33 33 34 35 37 38 38 38 38 38 38 40 41 42 42 43 44 44 44 45 46 44 39 35 35 37 38 38 39 38 37 38 38 39 39 38
28 28 29 30 30 31 32 33 34 35 36 37 36 36 37 38 39 41 42 43 42 42 44 45 46 48 48 44 39 37 36 37 38 39 39 39 39 39 39 39 38 39
26 26 28 28 29 29 30 32 33 34 35 34 34 36 37 39 41 41 42 42 41 41 43 44 46 50 49 43 38 37 37 37 38 39 39 40 40 40 41 41 40 39
24 25 26 26 27 27 29 31 32 33 34 34 35 37 38 39 40 41 41 42 41 41 41 43 46 49 47 41 38 37 37 37 38 39 41 42 42 42 42 42 43 42
23 23 24 26 27 29 30 31 31 32 33 34 34 36 37 38 39 40 41 42 41 40 40 42 46 46 43 40 39 39 38 38 38 39 40 42 44 45 44 43 43 43
22 24 26 28 30 30 31 32 32 32 33 32 33 35 36 36 37 38 39 40 41 39 39 41 45 44 40 38 39 39 38 38 38 38 39 41 43 44 45 45 44 43
23 25 28 29 30 30 32 33 32 33 33 32 32 35 36 35 35 36 37 38 39 39 38 40 44 43 38 37 39 38 39 39 39 39 40 41 42 43 43 44 44 43
24 25 26 28 30 31 33 33 33 33 33 32 31 33 35 35 35 36 39 38 38 39 38 38 43 43 39 37 39 39 38 39 39 39 39 40 42 44 43 43 45 44
23 24 25 27 30 31 32 32 33 33 33 32 31 32 34 36 34 35 40 40 38 38 38 38 42 45 40 37 38 37 36 36 36 36 36 37 38 39 40 41 44 45
23 24 25 26 28 30 31 31 31 32 32 32 33 33 34 36 35 35 40 42 39 38 39 39 40 42 39 34 34 35 34 33 34 34 34 35 36 37 39 42 44 45
Wind_Direction
57 56 55 54 53 50 48 47 44 43 39 35 31 27 22 19 14 9 1 353 345 340 336 332 328 326 323 321 318 312 307 302 297 293 289 285 281 277 272 267 261 258
57 56 55 54 52 50 48 46 44 42 40 36 33 30 26 24 21 18 12 5 358 349 342 336 333 333 331 328 326 321 315 309 303 299 295 291 289 285 280 276 271 266
51 50 50 50 48 47 45 43 41 39 36 33 30 27 25 22 21 20 18 15 11 5 359 351 342 335 332 330 328 324 320 316 311 306 301 297 294 290 287 283 278 273
41 39 39 39 38 38 36 34 33 31 28 26 23 20 19 17 16 15 14 14 13 11 8 4 358 350 340 332 327 323 321 318 316 312 306 301 298 294 291 288 284 280
35 31 30 27 25 25 24 24 22 20 18 16 14 11 10 9 8 7 7 7 6 6 5 4 3 1 354 345 335 326 321 317 316 315 310 305 302 298 295 293 289 285
30 25 24 21 17 12 11 12 12 9 8 6 5 4 3 1 0 359 358 357 357 357 357 357 357 357 356 352 346 338 329 321 316 313 310 307 305 302 298 294 291 288
20 15 15 14 12 8 2 2 1 359 358 356 355 356 356 355 353 353 352 350 349 348 348 348 348 349 349 346 344 341 337 330 323 315 309 306 305 302 300 296 292 290
13 5 4 6 7 6 360 355 352 351 349 347 347 348 348 348 347 347 346 344 343 341 341 341 340 340 340 339 338 335 334 332 327 321 312 306 303 300 298 298 294 290
11 2 360 1 2 1 358 351 345 344 344 342 341 341 341 342 342 341 340 340 338 336 335 335 334 333 332 332 330 328 327 326 324 320 315 309 304 300 298 296 294 290
5 0 357 356 354 353 351 347 340 339 339 338 337 336 337 337 337 336 336 335 333 332 331 329 328 327 325 324 323 321 318 318 318 316 312 309 305 302 300 296 292 288
357 354 352 350 347 345 344 341 337 335 335 334 333 332 332 332 332 331 331 329 328 327 325 323 322 321 319 317 316 315 312 310 311 310 307 306 303 301 300 297 293 288
349 347 345 343 341 339 338 336 335 334 333 332 331 330 328 328 328 327 326 325 323 321 320 318 317 315 313 311 310 309 307 304 304 304 303 301 299 299 298 296 292 289
341 339 337 336 334 333 332 332 331 331 330 329 328 326 325 324 324 323 322 321 318 317 316 314 312 310 308 307 306 305 303 299 297 298 297 295 293 293 294 293 291 288
333 329 327 327 326 326 326 326 326 326 325 324 323 322 321 321 320 319 318 316 315 313 312 310 309 307 305 303 302 302 300 297 295 294 292 290 288 286 286 288 288 286
326 322 320 319 319 319 320 320 320 320 320 319 318 317 316 315 315 315 313 312 311 310 309 307 305 303 301 300 299 298 296 294 293 292 291 288 286 284 283 282 283 282
321 318 315 315 315 315 315 316 315 315 315 314 313 312 311 310 310 309 308 308 308 307 306 305 302 300 298 297 295 293 292 291 290 289 288 286 283 282 281 281 280 279
316 313 311 311 311 311 311 311 310 310 310 310 309 308 306 306 305 304 304 303 303 303 302 301 299 298 297 297 294 291 289 289 288 287 285 283 281 278 278 278 277 276
310 308 306 306 307 308 307 306 306 306 307 306 305 303 302 301 301 301 300 300 299 298 297 296 296 295 295 295 293 292 291 290 288 287 285 282 280 278 277 276 275 274
306 304 303 304 305 305 304 304 304 304 304 303 301 300 299 298 298 298 297 296 295 294 293 293 292 292 293 293 292 292 292 291 290 288 286 283 280 278 277 276 276 274
305 304 303 303 303 303 302 302 302 301 300 299 298 298 297 296 296 296 295 293 292 291 291 290 289 290 291 292 293 293 293 292 291 288 286 284 281 278 276 275 275 274
305 303 302 302 303 303 302 300 300 298 297 297 297 296 295 295 294 294 293 292 291 290 290 289 288 289 292 294 295 295 295 294 291 288 285 283 282 280 277 275 274 273
302 302 302 303 303 303 302 300 300 299 298 299 298 296 294 293 292 292 291 290 291 291 290 289 289 290 293 296 297 297 297 296 293 289 286 283 280 279 277 276 274 273
300 302 303 303 304 303 302 301 301 301 300 301 300 297 296 294 293 292 290 290 290 291 291 291 291 292 296 298 298 298 298 297 295 291 287 283 280 278 277 277 276 273
302 303 303 303 303 303 302 302 302 302 302 302 300 297 295 294 293 292 291 290 290 291 292 292 292 294 297 299 298 297 296 295 293 290 287 283 282 281 279 278 276 274
303 303 304 304 304 303 302 302 302 302 302 301 299 296 294 294 293 292 291 290 290 290 291 291 292 293 297 298 298 296 295 293 290 287 285 283 284 284 283 281 278 276
307 308 308 307 304 303 303 303 303 303 302 302 300 297 295 294 293 292 291 291 292 292 292 291 292 293 296 298 298 297 296 294 290 286 284 285 285 285 284 282 279 277